Location: Cactus School
(34.5700°N, 118.0931°W)
Time: 08:40:47
(UTC-07:00)

Vanguard 2 - Pass Details

Date: 28 April 2024
Orbit: 553 x 2914 km, 32.9° (Epoch: 22 May)

Event Time Altitude Azimuth Distance (km) Brightness Sun altitude
Rises 21:51:34 0° 207° (SSW) 3,786 10.9 -25.1°
Enters shadow 21:53:06 - 201° (SSW) 3,377 10.6 -25.4°
Exits shadow 22:13:34 - 80° (E) 5,432 11.5 -28.4°
Sets 22:16:04 0° 77° (ENE) 6,100 11.9 -28.8°
